Temperature
10 10 10 10 10 9 9 9 9 9 9 9 9 9 9 9 8 8 8 8 8 8 7 7 7 6 6 6 6 6 6 6 6 6 6 6 6 6 6 7 7 7 7
10 10 10 10 10 9 9 9 9 9 9 9 9 9 9 9 9 8 8 8 8 8 7 7 7 6 6 6 5 5 5 5 5 5 5 5 5 5 5 5 6 6 6
10 10 10 10 10 9 9 9 9 9 9 9 9 9 9 9 9 8 8 8 8 7 7 7 7 6 6 5 5 5 5 5 5 5 5 4 5 5 5 5 5 5 5
10 10 10 10 10 9 9 9 9 9 9 9 9 9 9 9 9 8 8 8 7 7 7 7 6 6 6 5 5 5 5 5 4 4 4 4 4 4 4 4 4 5 5
10 10 10 10 10 10 9 9 10 9 9 9 9 9 9 9 9 8 8 7 7 7 6 6 6 6 6 5 5 5 5 4 4 4 4 4 4 4 4 4 4 4 4
10 10 10 10 10 10 10 10 10 10 9 9 9 9 9 9 8 8 7 7 7 6 6 6 6 6 5 5 5 5 4 4 4 3 3 3 3 3 3 3 3 3 4
10 10 10 10 10 10 10 10 10 9 9 9 9 9 9 8 8 7 7 7 6 6 6 5 5 5 5 5 5 5 4 4 3 3 3 2 2 2 2 3 3 3 3
10 10 10 10 10 10 10 10 10 9 9 9 9 9 8 8 7 7 7 6 6 6 5 5 5 5 5 5 4 4 4 3 2 2 2 2 2 2 2 2 2 2 2
10 10 10 10 10 10 10 10 10 9 9 9 9 8 8 8 7 7 7 6 6 6 5 5 5 5 5 4 4 4 4 3 2 2 1 1 1 1 1 1 1 2 2
10 10 10 10 10 10 10 10 9 9 9 9 8 8 8 7 7 6 6 6 6 5 5 5 5 5 4 4 4 3 3 2 1 1 1 1 1 1 1 1 1 1 1
10 10 10 10 10 10 10 9 9 9 9 9 8 8 7 7 6 5 6 6 6 6 5 5 5 4 4 3 3 3 2 2 1 1 0 0 0 -0 -0 -0 -0 -0 -0
10 10 10 10 10 10 9 9 9 9 9 8 8 7 7 6 6 5 5 5 5 6 5 5 4 4 3 2 2 2 1 1 1 0 -0 -0 -1 -1 -1 -1 -1 -1 -1
10 10 10 10 10 9 9 9 9 9 8 8 8 7 7 6 5 5 4 4 4 5 5 5 4 3 2 2 1 1 1 1 0 -0 -0 -1 -1 -1 -1 -2 -2 -2 -2
11 10 10 10 9 9 9 9 9 8 8 8 7 7 6 6 5 4 4 3 3 3 3 4 3 2 2 1 1 1 0 0 -0 -1 -1 -1 -2 -2 -2 -2 -2 -2 -2
10 10 10 9 9 9 9 9 8 8 8 7 7 7 6 6 5 4 3 3 2 1 2 3 2 2 1 1 0 -0 -0 -1 -1 -1 -2 -2 -2 -2 -3 -3 -3 -3 -3
10 10 10 9 9 9 9 8 8 8 7 7 7 6 6 5 5 4 3 3 2 1 0 1 1 1 1 0 -0 -1 -1 -1 -1 -2 -2 -3 -3 -3 -4 -4 -4 -4 -4
10 10 9 9 9 9 8 8 8 7 7 7 6 6 5 5 4 4 3 2 2 1 0 1 1 0 -0 -0 -1 -1 -1 -2 -2 -2 -3 -3 -4 -4 -4 -4 -4 -4 -4
9 9 9 9 9 8 8 8 7 7 7 6 6 5 5 4 4 3 3 2 1 1 -0 -0 0 -0 -1 -1 -1 -2 -2 -2 -3 -3 -3 -4 -4 -4 -4 -5 -5 -5 -4
9 9 9 9 8 8 8 7 7 6 6 6 5 5 4 4 3 3 2 2 1 0 -0 -1 -1 -1 -1 -2 -2 -2 -3 -3 -3 -4 -4 -4 -4 -5 -5 -5 -5 -5 -5
9 9 8 8 8 8 7 7 6 6 6 5 5 4 4 3 3 2 1 1 0 -0 -1 -2 -2 -2 -2 -3 -3 -3 -4 -4 -4 -4 -4 -5 -5 -5 -5 -5 -5 -5 -5
8 8 8 8 7 7 7 7 6 6 5 5 4 4 3 3 2 1 1 0 -1 -1 -2 -2 -3 -3 -3 -3 -4 -4 -5 -5 -5 -5 -5 -5 -5 -5 -5 -5 -5 -5 -6
8 8 8 7 7 7 6 6 5 5 4 4 4 3 3 2 1 1 0 -1 -1 -2 -2 -3 -3 -4 -4 -4 -5 -5 -6 -6 -6 -6 -6 -6 -6 -6 -6 -6 -6 -6 -6
7 7 7 7 7 6 6 5 5 4 4 3 3 3 2 1 1 0 -0 -1 -1 -2 -3 -3 -4 -4 -4 -5 -5 -6 -6 -6 -6 -6 -6 -6 -6 -6 -6 -6 -6 -6 -7
7 7 7 6 6 6 5 5 4 3 3 3 2 2 1 1 0 -1 -1 -1 -2 -2 -3 -4 -4 -4 -5 -5 -6 -6 -6 -6 -6 -6 -7 -7 -6 -6 -6 -6 -7 -7 -7
7 6 6 6 5 5 4 4 3 3 2 2 2 1 0 -0 -1 -1 -2 -2 -3 -3 -3 -4 -5 -5 -5 -6 -6 -6 -7 -7 -7 -7 -7 -7 -7 -7 -7 -7 -7 -7 -7
6 6 5 5 5 4 4 3 2 2 2 1 1 0 -0 -1 -2 -2 -3 -3 -3 -4 -4 -5 -5 -5 -6 -6 -6 -7 -7 -7 -8 -8 -8 -8 -8 -8 -8 -7 -7 -7 -7
Wind_Speed
7 8 7 7 7 6 5 3 2 1 1 2 3 4 4 5 4 2 2 2 2 4 6 7 8 9 9 10 10 11 12 12 12 13 13 14 14 14 14 14 14 14 15
10 8 6 6 6 6 6 4 2 1 1 2 3 4 4 5 4 2 1 2 3 4 5 7 7 8 9 10 10 11 12 12 13 13 13 14 14 14 15 15 15 15 15
13 10 6 5 6 7 6 4 2 2 2 2 3 4 4 5 4 2 1 2 3 4 4 5 6 8 9 10 11 12 12 12 13 13 13 14 14 15 15 15 16 16 16
15 11 6 5 7 7 5 3 2 2 2 2 2 3 4 4 3 1 2 3 4 4 4 4 6 7 9 10 11 12 13 13 13 13 14 14 15 15 16 16 16 16 16
15 12 7 7 8 6 4 2 2 2 1 1 2 3 3 3 2 2 3 4 3 3 4 4 5 7 9 10 12 13 13 13 13 14 14 14 15 16 16 16 17 17 17
15 13 8 8 9 5 3 3 3 2 1 1 2 3 4 3 2 2 2 3 4 5 5 5 6 6 9 11 13 13 13 13 14 14 14 15 16 16 17 17 18 18 18
15 13 8 7 7 5 5 5 3 3 2 2 3 4 4 4 4 3 3 3 4 5 6 6 6 6 7 9 11 12 13 13 14 14 15 15 16 17 17 18 18 19 19
16 13 9 7 6 5 5 4 4 3 1 2 2 2 3 4 4 4 3 2 3 4 6 6 7 8 8 8 9 11 12 13 14 15 15 16 17 17 18 18 19 19 19
15 14 12 9 7 6 6 5 5 5 3 1 2 3 3 2 3 4 3 2 2 2 3 6 8 10 9 9 9 10 12 13 15 16 16 17 17 18 19 19 20 20 20
14 15 13 11 8 6 7 6 5 4 5 3 1 1 2 3 2 3 4 3 3 3 3 5 8 10 10 9 9 11 13 14 15 16 17 18 19 19 20 20 21 21 21
11 13 13 11 8 6 7 7 6 5 4 4 3 2 1 1 2 2 4 5 4 4 4 5 6 7 8 9 10 11 13 15 17 18 18 19 20 20 21 21 21 21 22
6 9 12 11 9 7 7 7 6 7 5 4 4 3 3 3 3 3 4 4 5 5 4 4 4 4 6 7 9 13 16 17 18 19 19 20 20 21 22 22 22 22 22
6 9 8 8 8 8 8 7 6 6 6 5 5 3 3 3 3 3 3 3 4 4 4 3 3 4 4 6 10 15 16 18 19 20 21 21 21 22 22 23 23 23 23
9 10 9 10 9 10 9 7 5 5 5 5 5 4 3 3 3 3 3 2 3 4 3 5 3 4 5 7 12 16 15 18 20 21 21 21 21 22 23 23 23 24 24
8 10 10 9 9 9 9 7 5 5 5 5 5 5 3 3 3 3 3 4 3 4 5 4 3 3 6 9 13 14 14 17 20 21 21 21 22 23 23 23 23 24 24
10 11 10 10 9 8 8 7 6 5 6 5 4 5 4 3 3 3 4 4 4 5 6 4 5 5 8 12 15 15 15 18 20 21 22 22 22 23 23 23 23 24 24
12 13 12 11 10 10 9 8 7 7 7 5 5 5 6 4 4 4 3 4 4 5 8 7 5 5 5 7 11 13 14 15 15 20 23 23 23 23 24 23 23 24 24
12 12 11 11 10 10 9 9 8 7 7 7 6 6 6 4 5 4 4 5 5 6 6 10 7 5 6 7 7 7 10 13 13 19 22 23 23 24 24 24 24 24 24
11 11 11 11 11 10 9 9 8 8 8 7 7 7 6 5 6 5 5 6 5 6 6 8 9 5 5 5 6 7 8 8 13 16 20 21 22 24 24 24 25 25 24
12 12 11 11 10 9 9 8 8 7 7 6 6 7 7 7 7 7 6 7 6 6 6 7 8 6 5 6 5 6 7 6 8 12 16 19 21 23 23 23 24 24 24
11 11 10 9 8 8 8 8 8 7 7 6 6 6 7 9 10 9 7 6 6 6 6 7 8 7 6 5 5 5 8 8 7 7 7 9 10 10 14 20 22 23 24
9 9 10 9 9 8 11 13 9 7 7 7 7 7 7 8 11 14 15 14 11 8 7 6 7 8 8 6 6 7 8 9 7 4 4 7 6 8 8 12 19 23 23
9 9 8 8 8 8 11 12 12 7 7 7 7 6 6 7 10 7 11 14 13 16 15 10 9 9 8 7 7 8 8 9 9 6 7 8 5 7 8 14 20 22 21
8 8 8 8 7 7 10 11 10 6 6 6 7 7 7 7 7 8 7 7 8 9 11 8 8 10 9 9 8 9 9 9 8 6 5 7 6 6 9 9 18 18 17
7 6 7 7 7 6 9 9 8 4 5 6 6 6 6 7 12 14 8 7 8 8 12 16 18 17 19 20 15 7 6 7 8 5 3 4 4 5 6 6 10 14 16
6 6 6 6 6 5 7 8 7 4 4 5 5 6 9 10 13 14 7 7 9 8 7 9 10 12 11 13 16 8 6 7 7 5 2 2 4 4 5 3 3 7 10
Wind_Direction
183 187 196 201 205 205 205 211 231 297 358 6 16 19 6 2 2 352 338 355 24 18 8 11 11 8 5 4 3 1 358 355 352 350 347 344 342 340 338 333 327 325 322
183 183 187 191 197 197 195 185 174 112 40 23 16 14 9 7 9 13 46 56 54 41 26 20 15 10 7 4 3 1 358 353 350 346 343 340 338 336 333 331 328 326 323
185 181 178 183 190 185 171 151 120 85 53 33 15 5 3 358 2 25 86 95 82 64 45 31 18 10 4 1 360 357 355 350 346 343 340 338 336 334 331 328 326 323 320
185 176 171 178 178 163 149 134 111 87 52 32 351 335 342 345 351 20 90 112 102 74 46 32 18 7 2 357 354 352 350 346 344 341 340 338 336 332 330 327 325 322 319
182 173 170 172 163 144 136 130 101 110 80 356 324 335 344 344 345 35 82 97 95 72 49 28 17 9 0 353 349 346 343 341 340 339 338 337 334 331 328 326 324 321 319
177 169 165 163 155 138 136 130 116 90 86 2 347 354 351 347 23 53 68 71 72 66 56 39 25 11 1 354 348 342 339 338 337 336 336 335 333 331 328 327 324 322 319
173 167 160 157 155 155 159 149 129 106 59 33 38 2 352 8 38 33 36 54 55 55 47 31 19 5 355 351 347 343 339 335 334 333 333 332 331 328 327 325 324 321 319
174 171 163 162 159 152 151 148 137 126 91 65 104 72 8 351 352 4 9 33 30 31 21 6 358 346 336 335 337 341 338 336 333 331 330 330 328 326 325 324 322 321 320
173 172 170 163 161 159 163 164 153 145 147 80 102 137 137 231 301 323 342 358 355 1 352 342 339 332 331 329 329 330 333 333 330 329 328 327 326 324 323 322 321 320 318
172 172 169 165 164 161 161 164 157 149 144 155 121 104 154 160 173 304 314 316 326 324 315 319 320 321 326 329 325 326 329 327 326 326 326 324 322 321 320 319 318 316 315
172 171 168 165 163 162 162 159 154 152 152 160 167 161 136 110 157 186 276 306 315 292 287 293 299 310 325 333 330 329 329 327 323 323 322 320 319 318 316 316 315 313 311
172 173 168 167 166 164 165 165 163 161 162 160 166 167 168 175 191 187 233 274 293 291 290 282 283 295 323 337 337 334 330 325 321 320 318 316 316 315 314 313 312 310 309
181 182 170 170 169 169 167 161 162 167 166 168 178 186 187 193 180 177 204 256 281 296 302 292 265 273 311 334 331 328 325 320 318 316 314 313 312 311 311 310 308 307 306
185 176 172 173 171 168 167 163 161 172 172 178 188 188 193 203 186 183 189 205 287 296 289 277 284 262 286 314 318 320 316 315 314 313 312 312 310 309 308 308 307 305 304
175 172 172 171 170 169 168 163 171 178 178 188 194 197 201 211 203 202 195 186 198 272 288 268 272 267 276 299 306 308 304 307 312 312 310 310 309 307 306 306 305 305 304
173 172 174 173 172 172 170 169 173 181 183 195 195 201 216 220 219 213 210 210 203 217 262 263 254 263 284 294 301 307 301 306 310 309 308 307 307 306 306 304 304 304 304
175 177 177 175 176 177 176 177 185 184 192 204 205 209 225 224 227 229 224 223 222 215 258 277 260 269 274 277 292 293 294 294 294 304 307 306 306 306 306 304 304 304 304
178 178 175 176 179 181 181 185 191 192 198 208 214 216 232 232 236 237 233 236 237 229 244 278 285 277 267 271 274 280 291 295 293 302 306 306 306 306 305 304 303 303 304
175 174 174 179 183 185 186 191 193 198 204 210 212 218 230 228 243 246 244 246 251 256 245 266 284 276 269 272 280 283 283 286 291 298 303 303 304 304 304 304 305 306 305
173 176 180 183 184 185 188 191 193 200 208 215 217 221 228 227 238 246 252 251 255 260 261 267 279 281 272 268 271 283 294 281 286 294 294 297 300 302 302 304 305 305 304
174 175 176 179 181 185 192 191 194 199 207 219 228 230 234 242 249 255 261 255 252 259 266 271 280 285 283 283 279 277 292 293 281 272 275 284 291 290 293 297 301 300 301
169 170 178 181 187 197 204 203 197 198 206 217 233 242 247 253 263 272 276 278 275 273 272 271 278 279 281 274 275 280 288 298 297 263 267 281 275 278 283 286 293 299 302
169 174 181 184 194 204 204 208 208 201 210 221 231 241 256 260 270 265 277 285 286 286 284 282 280 278 280 274 276 280 277 280 284 283 284 287 275 278 283 290 298 301 303
173 179 184 188 193 206 207 214 215 209 218 229 233 236 244 256 262 269 263 266 265 270 278 281 267 270 271 271 264 273 281 284 275 269 265 281 284 281 289 287 294 301 308
174 180 183 184 192 210 214 217 215 203 224 239 243 242 248 253 271 282 279 271 274 273 282 285 287 289 293 298 300 299 297 298 299 290 252 255 283 295 286 278 287 304 314
174 173 179 185 191 205 216 218 218 200 226 245 252 254 261 268 279 287 279 271 277 278 276 286 289 293 296 298 301 295 285 288 293 294 266 266 282 306 302 279 280 298 307
Height
1545 1546 1547 1548 1548 1549 1549 1549 1549 1548 1548 1547 1546 1545 1544 1543 1542 1541 1541 1540 1539 1538 1537 1536 1535 1534 1533 1531 1530 1528 1527 1525 1524 1522 1521 1520 1519 1517 1516 1515 1514 1513 1513
1544 1545 1546 1547 1547 1548 1548 1548 1548 1547 1547 1546 1545 1544 1543 1542 1541 1540 1539 1538 1537 1536 1535 1534 1533 1532 1531 1530 1528 1527 1525 1523 1522 1520 1518 1517 1516 1514 1513 1512 1511 1510 1509
1542 1543 1545 1545 1546 1547 1547 1547 1546 1546 1545 1544 1544 1543 1542 1541 1539 1538 1537 1537 1536 1535 1534 1533 1532 1530 1529 1528 1526 1525 1523 1521 1519 1518 1516 1514 1513 1511 1510 1508 1507 1506 1505
1540 1541 1543 1544 1544 1545 1545 1545 1545 1544 1544 1543 1542 1541 1540 1539 1538 1537 1536 1535 1535 1534 1533 1531 1530 1529 1527 1526 1524 1523 1521 1519 1517 1515 1513 1511 1510 1508 1506 1505 1503 1502 1501
1538 1539 1541 1542 1543 1543 1543 1544 1543 1543 1542 1541 1540 1539 1538 1537 1536 1536 1535 1534 1533 1532 1531 1530 1528 1527 1525 1523 1522 1520 1518 1516 1514 1512 1511 1509 1507 1505 1503 1501 1500 1498 1497
1535 1537 1538 1539 1540 1541 1541 1541 1541 1541 1540 1540 1539 1537 1536 1535 1535 1534 1534 1533 1532 1531 1530 1528 1527 1525 1523 1521 1519 1517 1515 1513 1511 1510 1507 1505 1503 1501 1499 1498 1496 1494 1492
1532 1534 1535 1537 1538 1538 1539 1539 1539 1539 1538 1538 1537 1536 1535 1534 1533 1533 1532 1532 1531 1530 1528 1526 1524 1522 1520 1518 1516 1513 1511 1510 1508 1506 1504 1502 1500 1498 1496 1494 1492 1490 1488
1529 1531 1532 1534 1535 1536 1536 1537 1537 1536 1536 1535 1535 1534 1533 1533 1532 1531 1531 1530 1529 1528 1526 1524 1522 1520 1517 1515 1513 1510 1508 1506 1505 1503 1501 1498 1496 1494 1492 1490 1487 1485 1483
1525 1527 1529 1531 1532 1533 1534 1534 1534 1534 1534 1533 1533 1533 1531 1530 1530 1529 1528 1527 1526 1525 1524 1522 1519 1517 1514 1512 1509 1507 1505 1502 1501 1499 1497 1494 1492 1490 1487 1485 1483 1480 1478
1521 1523 1526 1527 1529 1530 1531 1531 1531 1531 1531 1531 1530 1530 1530 1529 1528 1526 1526 1525 1523 1522 1520 1518 1516 1513 1511 1508 1506 1504 1501 1499 1497 1495 1492 1490 1487 1485 1483 1480 1477 1475 1472
1517 1520 1522 1524 1525 1526 1527 1528 1528 1529 1528 1528 1528 1527 1526 1526 1525 1524 1522 1521 1520 1518 1516 1514 1512 1510 1507 1505 1502 1500 1497 1495 1492 1490 1487 1485 1482 1480 1477 1474 1472 1469 1467
1513 1515 1518 1520 1521 1523 1524 1525 1525 1525 1525 1525 1524 1524 1523 1522 1521 1520 1518 1516 1514 1513 1512 1510 1508 1506 1503 1501 1498 1496 1493 1490 1487 1485 1482 1479 1476 1473 1471 1468 1465 1463 1461
1507 1510 1513 1515 1518 1519 1520 1521 1522 1522 1522 1522 1521 1521 1520 1519 1518 1517 1515 1512 1510 1508 1506 1505 1504 1502 1499 1496 1494 1491 1488 1485 1482 1479 1476 1473 1470 1467 1464 1462 1459 1457 1454
1503 1506 1509 1512 1514 1515 1517 1518 1518 1519 1519 1518 1518 1517 1516 1516 1514 1513 1512 1509 1505 1502 1501 1500 1499 1497 1494 1492 1489 1485 1482 1479 1476 1473 1470 1467 1464 1461 1458 1455 1452 1450 1447
1499 1502 1505 1508 1510 1511 1513 1514 1514 1515 1515 1515 1514 1514 1513 1512 1510 1509 1508 1506 1504 1498 1494 1494 1493 1491 1489 1486 1483 1479 1476 1473 1470 1466 1463 1460 1457 1454 1451 1449 1446 1443 1440
1495 1497 1500 1503 1505 1507 1508 1510 1510 1511 1511 1511 1510 1509 1509 1507 1506 1505 1503 1502 1499 1496 1491 1488 1487 1486 1483 1480 1477 1474 1470 1467 1463 1460 1457 1454 1451 1448 1445 1442 1439 1436 1434
1490 1493 1496 1498 1501 1502 1504 1505 1506 1506 1506 1506 1506 1505 1504 1503 1501 1500 1498 1496 1494 1491 1486 1481 1481 1479 1477 1474 1470 1467 1464 1460 1456 1453 1450 1447 1444 1441 1438 1435 1432 1429 1427
1485 1488 1491 1494 1496 1498 1499 1500 1501 1502 1502 1502 1501 1500 1499 1498 1496 1495 1493 1490 1488 1486 1481 1475 1473 1472 1469 1467 1463 1460 1457 1453 1450 1446 1443 1440 1437 1434 1431 1428 1425 1422 1419
1480 1484 1486 1489 1491 1493 1494 1496 1497 1497 1497 1497 1496 1495 1494 1493 1491 1489 1487 1484 1482 1479 1476 1471 1466 1465 1462 1460 1456 1453 1450 1446 1443 1440 1436 1433 1430 1427 1424 1421 1418 1415 1412
1475 1479 1482 1484 1487 1488 1490 1491 1492 1492 1492 1492 1491 1490 1489 1487 1485 1483 1481 1478 1476 1473 1470 1466 1461 1458 1455 1453 1449 1445 1441 1438 1435 1433 1430 1426 1423 1420 1417 1414 1411 1407 1404
1471 1474 1477 1479 1482 1483 1485 1486 1486 1487 1487 1486 1486 1485 1483 1482 1480 1477 1475 1473 1470 1467 1463 1459 1455 1452 1449 1446 1443 1439 1434 1430 1427 1425 1421 1419 1416 1413 1410 1407 1403 1400 1397
1466 1469 1472 1474 1476 1478 1479 1480 1481 1481 1481 1480 1480 1479 1477 1476 1474 1472 1469 1467 1465 1462 1457 1454 1449 1446 1442 1440 1436 1433 1428 1423 1419 1418 1415 1411 1409 1405 1403 1400 1396 1393 1390
1461 1464 1467 1469 1471 1473 1474 1475 1475 1475 1475 1474 1474 1472 1471 1469 1467 1465 1463 1460 1458 1456 1453 1449 1444 1440 1437 1433 1430 1426 1422 1419 1415 1412 1409 1403 1402 1399 1397 1393 1390 1387 1384
1456 1459 1462 1464 1466 1468 1469 1470 1470 1469 1469 1468 1468 1466 1464 1462 1461 1458 1455 1452 1450 1448 1446 1442 1439 1434 1431 1428 1425 1421 1417 1412 1408 1407 1404 1399 1395 1392 1389 1387 1384 1381 1378
1451 1454 1457 1459 1460 1462 1464 1464 1464 1463 1462 1462 1461 1460 1458 1456 1454 1452 1449 1445 1442 1440 1438 1435 1432 1429 1425 1422 1419 1415 1411 1407 1402 1399 1398 1394 1390 1386 1382 1380 1378 1376 1373
1447 1450 1452 1454 1455 1457 1458 1458 1458 1457 1456 1455 1454 1453 1452 1449 1447 1445 1442 1439 1435 1433 1430 1427 1425 1422 1419 1415 1413 1410 1406 1402 1398 1394 1392 1390 1386 1382 1377 1374 1373 1371 1368